Location: Croisilles
(50.1998°N, 2.8793°E)
Time: 21:08:34
(UTC+00:00)

Cosmos 1315 Rocket - Pass Details

Date: 21 January 2021
Orbit: 530 x 567 km, 81.2° (Epoch: 01 March)

Event Time Altitude Azimuth Distance (km) Brightness Sun altitude
Rises 17:44:33 0° 341° (NNW) 2,703 6.4 -12.6°
Reaches altitude 10° 17:46:48 10° 333° (NNW) 1,811 5.6 -13.0°
Maximum altitude 17:50:29 37° 266° (W) 862 4.5 -13.6°
Drops below altitude 10° 17:54:10 10° 198° (SSW) 1,817 5.9 -14.1°
Sets 17:56:27 0° 190° (S) 2,712 6.7 -14.5°
